This is the latest recevied weather packets stored in our database for station/object KC8QDR-1. If no packets are shown the sender has not sent any weather packets the latest 10 day(s).
| Time | Temp. | Humidity | Pressure | Rain* | Wind** | Luminosity | Snow |
|---|---|---|---|---|---|---|---|
| 1777768725 | 5.56° C | 74% | 1022.5 hPa | 0 mm | 0 m/s | - | - |
| 1777768124 | 5.56° C | 72% | 1022.5 hPa | 0 mm | 0 m/s | - | - |
| 1777767525 | 5.56° C | 73% | 1022.5 hPa | 0 mm | 0 m/s | - | - |
| 1777766925 | 6.11° C | 70% | 1022.7 hPa | 0 mm | 0 m/s | - | - |
| 1777766325 | 6.11° C | 70% | 1022.7 hPa | 0 mm | 0 m/s | - | - |
| 1777765724 | 6.11° C | 69% | 1022.8 hPa | 0 mm | 0 m/s | - | - |
| 1777765125 | 6.11° C | 69% | 1023 hPa | 0 mm | 0.45 m/s, 333° | - | - |
| 1777764525 | 6.11° C | 67% | 1023 hPa | 0 mm | 0.45 m/s, 303° | - | - |
| 1777763925 | 6.11° C | 67% | 1023 hPa | 0 mm | 0 m/s | - | - |
| 1777763326 | 6.11° C | 66% | 1023 hPa | 0 mm | 1.34 m/s, 359° | - | - |
| 1777762724 | 6.11° C | 66% | 1022.9 hPa | 0 mm | 2.24 m/s, 309° | - | - |
| 1777762124 | 6.11° C | 68% | 1022.9 hPa | 0 mm | 1.79 m/s, 345° | - | - |
| 1777761525 | 6.67° C | 66% | 1022.9 hPa | 0 mm | 2.68 m/s, 328° | - | - |
| 1777760925 | 6.67° C | 67% | 1022.8 hPa | 0 mm | 4.02 m/s, 359° | - | - |
| 1777760326 | 6.67° C | 65% | 1022.8 hPa | 0 mm | 3.58 m/s, 352° | - | - |
| 1777759724 | 6.67° C | 63% | 1022.8 hPa | 0 mm | 2.24 m/s, 321° | - | - |
| 1777758525 | 7.22° C | 63% | 1022.6 hPa | 0 mm | 2.24 m/s, 340° | - | - |
| 1777757925 | 7.22° C | 61% | 1022.5 hPa | 0 mm | 2.24 m/s, 351° | - | - |
| 1777757324 | 7.22° C | 60% | 1022.5 hPa | 0 mm | 3.13 m/s, 341° | - | - |
| 1777756725 | 7.22° C | 62% | 1022.3 hPa | 0 mm | 2.24 m/s, 323° | - | - |
| 1777756124 | 7.22° C | 59% | 1022.3 hPa | 0 mm | 0 m/s | - | - |
| 1777755525 | 7.78° C | 60% | 1022.3 hPa | 0 mm | 0 m/s | - | - |
| 1777754925 | 7.22° C | 61% | 1022.2 hPa | 0 mm | 1.79 m/s, 335° | - | - |
| 1777754325 | 7.22° C | 61% | 1022.2 hPa | 0 mm | 1.79 m/s, 39° | - | - |
| 1777753724 | 7.22° C | 62% | 1022.3 hPa | 0 mm | 1.34 m/s, 359° | - | - |
* Rain latest hour (hover to see other rain measurements)
** Current wind speed in m/s (hover to see current wind gust speed)